Theta_e
306 307 307 307 307 308 308 311 308 310 311 315 318 319 323 325 325 327 331 340 344 345 348 354 358 361 361 358 360 359 356 355 355 357 357 357 357 357 358 359 359 360 360 360
305 306 306 305 307 308 309 310 310 311 311 318 324 331 329 327 327 327 328 336 344 349 349 352 359 361 361 359 360 359 357 355 357 357 358 357 359 359 361 360 360 361 360 360
302 307 306 302 306 308 309 311 311 308 313 321 325 329 331 335 336 334 331 332 340 348 352 354 358 362 359 359 360 358 357 356 357 358 358 359 359 361 359 359 362 361 360 358
303 306 297 307 313 311 309 311 313 314 319 326 330 331 340 344 344 343 343 340 336 345 352 356 359 361 361 360 359 358 356 356 359 360 359 360 360 360 360 363 360 359 358 358
301 302 306 308 314 311 308 309 318 318 323 327 332 330 334 342 345 346 346 341 338 344 352 358 360 362 361 359 359 357 355 355 358 360 359 360 359 360 359 358 358 358 357 357
306 300 298 308 315 320 318 308 325 326 326 329 329 318 333 341 340 342 347 348 340 340 348 354 360 361 360 358 358 356 357 357 359 360 361 360 362 364 361 360 358 356 354 355
306 303 306 316 324 326 310 312 329 331 333 333 330 336 341 341 340 342 340 346 349 344 346 349 356 358 359 359 356 359 362 360 360 362 363 364 364 361 360 359 358 356 353 353
307 304 302 322 322 317 325 332 333 335 334 335 337 337 337 338 338 341 341 342 348 349 349 352 353 355 357 358 362 363 362 362 362 362 360 360 363 362 360 358 355 353 352 349
316 314 325 327 329 333 332 331 331 332 332 332 331 332 334 336 338 340 343 343 345 347 350 351 354 356 354 357 359 360 360 359 358 359 359 357 351 348 355 356 351 350 347 345
318 321 323 327 330 332 332 332 331 332 332 331 331 331 332 333 334 336 338 343 344 345 346 341 342 345 354 356 357 354 352 353 356 354 350 349 340 332 334 338 349 346 344 343
319 322 322 325 328 329 330 330 330 331 331 331 331 330 330 333 335 335 335 338 343 342 345 344 346 348 347 348 351 351 347 345 347 349 346 346 335 331 334 345 343 343 344 343
316 324 325 327 329 330 329 328 329 329 329 330 332 334 336 336 337 337 337 340 339 340 341 343 347 346 344 346 343 339 339 341 339 341 340 342 339 331 315 316 312 312 314 332
322 326 326 330 330 329 328 329 330 330 331 332 334 336 336 336 338 330 340 339 338 339 339 341 343 342 346 349 345 341 342 346 341 333 338 338 337 335 335 327 309 310 306 307
326 326 325 326 326 329 329 329 329 332 333 334 335 334 334 335 335 336 335 337 339 338 340 341 341 341 341 341 343 342 341 322 340 338 338 338 338 337 337 337 335 335 313 311
324 327 327 330 329 329 330 331 330 330 331 332 333 331 332 333 332 329 332 334 336 334 334 339 339 340 344 346 343 342 344 344 341 341 339 335 340 340 337 334 332 334 333 314
323 325 327 327 329 330 330 330 329 330 331 331 329 327 328 331 332 333 332 332 331 329 332 335 336 337 340 341 341 340 344 329 332 337 337 336 335 333 330 330 329 329 327 323
321 321 325 324 327 328 329 332 332 331 332 329 326 326 328 328 329 330 331 333 329 329 333 336 336 337 341 340 339 339 339 337 331 336 334 333 330 330 330 331 331 327 326 318
328 327 326 328 329 329 330 331 332 333 329 326 326 327 327 327 327 328 328 331 329 330 333 334 336 336 337 339 340 340 337 336 335 335 334 333 332 331 331 331 331 325 322 313
329 328 328 328 331 331 332 333 332 329 326 325 327 326 327 328 328 328 331 328 329 330 331 334 328 333 335 334 336 337 336 338 336 336 337 328 334 334 332 331 331 332 330 326
329 329 330 330 332 332 333 333 330 327 327 328 328 327 326 327 328 328 329 328 330 330 331 332 336 335 336 332 329 334 334 333 332 332 333 333 335 333 333 320 329 332 333 329
329 328 329 331 330 334 333 331 328 326 327 328 327 327 326 327 328 329 326 326 330 330 329 327 332 334 333 333 332 331 329 329 328 327 328 331 330 329 330 330 330 330 331 333
329 328 330 331 332 332 331 329 328 327 326 327 327 327 327 327 328 326 327 324 327 312 329 330 327 320 326 323 327 325 324 325 325 326 326 326 327 329 330 330 329 328 331 333
329 330 331 331 331 328 329 328 327 327 326 326 325 327 326 321 320 317 316 324 323 318 322 320 315 316 318 324 322 320 320 320 319 318 318 319 320 323 325 323 322 321 323 327
328 328 330 332 331 328 326 327 326 328 327 325 325 325 322 320 321 322 324 315 311 316 323 322 319 315 313 326 325 325 324 323 324 323 324 309 322 321 321 323 324 328 327 322
327 329 330 329 327 324 325 327 325 325 322 322 323 324 324 324 321 323 325 325 313 317 326 314 316 316 325 328 329 329 329 329 328 326 325 326 323 324 324 323 324 323 324 327
326 323 324 325 322 323 324 327 320 321 320 319 320 322 323 325 325 325 327 320 326 319 324 325 326 324 326 326 328 328 326 325 325 325 324 326 327 326 324 324 324 324 323 323
324 316 321 319 324 327 324 321 320 318 318 319 319 322 323 323 323 322 316 325 325 325 325 326 324 321 324 324 326 326 325 323 316 323 323 324 325 325 325 325 325 326 326 325
Wind_Speed
18 22 7 12 19 20 22 21 19 14 15 16 11 4 8 8 5 6 5 7 8 9 11 12 13 13 12 12 12 12 12 12 13 12 11 10 11 11 11 11 10 9 9 8
19 17 19 16 16 12 18 20 19 16 15 11 3 5 6 4 5 7 4 7 8 11 13 14 15 14 13 13 13 14 13 12 12 12 11 11 11 11 10 10 11 9 10 9
16 19 19 21 21 20 14 13 16 16 12 6 4 1 5 6 6 6 6 6 8 11 13 14 15 15 14 14 14 14 13 13 13 13 12 11 10 11 11 12 9 10 9 8
14 18 17 14 18 21 18 14 14 8 5 2 2 2 5 9 9 9 8 6 7 8 11 13 14 15 14 15 14 14 14 13 13 14 14 13 12 11 11 9 10 9 9 9
12 13 14 9 10 12 15 17 10 13 7 5 2 6 4 9 11 12 11 7 5 6 9 11 14 14 14 15 15 15 16 15 14 13 14 14 13 13 12 11 11 10 10 10
10 17 20 15 12 7 12 14 13 12 8 5 5 9 11 7 10 12 13 11 6 3 6 8 11 13 14 15 16 16 14 15 15 14 14 14 14 13 12 12 12 11 11 11
13 11 12 4 12 10 15 6 16 10 6 3 2 6 6 6 7 8 9 11 8 3 2 4 7 11 13 14 15 13 12 14 15 15 14 13 12 11 12 12 10 11 11 10
12 11 13 10 9 11 7 9 10 10 7 8 8 6 5 5 6 8 9 9 8 6 4 2 3 7 10 12 10 10 11 12 12 12 11 10 10 10 11 11 12 12 11 10
3 3 4 11 5 5 6 9 7 7 6 5 4 4 3 3 4 5 6 6 6 6 5 5 3 2 6 6 6 7 8 11 11 11 9 5 1 3 5 9 10 11 11 11
7 6 6 6 5 7 5 7 5 4 4 2 1 2 1 3 3 4 6 6 5 2 2 4 4 4 3 6 7 8 8 6 10 10 8 7 1 9 6 19 14 12 9 11
9 6 4 7 5 6 6 4 4 4 3 2 0 1 3 3 4 5 5 4 4 5 5 5 5 4 3 4 6 7 6 5 7 7 8 8 11 11 13 21 13 11 11 11
3 8 4 5 5 5 6 7 5 5 4 2 1 2 1 5 5 4 4 3 4 1 2 2 1 2 2 2 7 9 10 8 9 6 7 7 5 6 12 5 9 9 6 7
3 2 3 8 7 5 6 5 5 4 3 5 3 4 4 6 6 5 7 5 4 3 3 3 2 4 4 2 3 2 6 4 4 6 6 6 5 5 4 8 6 8 9 9
5 1 4 5 3 6 4 5 5 3 5 5 5 4 4 5 6 4 5 5 5 4 3 3 3 4 3 3 3 2 2 5 3 3 3 2 2 5 6 8 7 6 6 7
6 8 5 1 4 5 4 6 6 6 7 6 5 4 4 6 6 5 4 4 5 6 5 4 4 6 6 3 4 3 3 3 2 2 2 1 3 4 3 4 6 5 2 2
4 5 7 9 7 6 6 7 8 7 7 6 5 4 5 5 5 6 5 5 5 5 5 6 5 5 5 2 2 4 2 5 5 2 2 3 3 2 1 3 4 5 3 3
8 9 8 9 10 8 8 7 7 8 7 6 5 5 5 5 5 5 5 7 4 4 4 6 6 5 5 1 2 4 6 3 4 3 2 2 1 3 3 3 4 4 3 2
12 15 8 10 9 9 8 9 9 8 6 6 6 5 5 5 4 5 4 3 3 4 7 6 7 6 6 5 4 3 3 2 2 3 3 3 2 2 2 2 3 2 2 4
12 14 16 13 10 10 10 11 10 9 9 8 7 6 5 5 4 5 2 2 3 3 6 5 6 4 6 7 3 3 3 2 2 3 2 3 4 4 4 3 3 5 4 4
10 12 14 12 12 13 12 11 11 10 8 7 7 6 5 5 4 5 3 5 5 5 4 6 4 5 6 7 6 4 4 6 6 5 4 5 3 3 1 2 3 6 4 6
7 8 11 12 13 13 13 12 12 11 9 8 6 6 5 5 5 5 5 4 4 4 4 2 6 4 4 2 2 4 5 5 5 4 4 5 2 1 1 3 2 4 4 6
6 6 9 14 14 14 13 12 12 9 8 7 6 6 7 6 6 4 5 4 5 4 1 4 5 8 6 12 5 6 6 6 6 5 4 5 5 4 3 4 2 2 4 5
5 6 10 13 15 14 14 13 12 10 9 7 8 8 8 7 7 7 7 2 5 1 5 6 5 4 8 4 6 7 7 7 7 7 6 6 5 5 4 4 4 2 1 3
6 7 11 13 14 14 14 12 12 11 9 8 10 10 10 7 6 6 6 4 3 3 2 5 4 2 9 3 3 4 4 4 3 4 3 1 5 5 4 3 3 2 1 4
6 7 10 12 12 8 8 9 9 10 10 11 11 9 7 5 6 6 5 5 7 6 5 8 6 6 6 3 1 2 2 2 2 4 4 3 4 3 3 3 3 4 4 2
6 4 4 8 8 7 5 4 7 8 9 10 8 8 7 6 5 6 6 2 4 4 5 7 6 9 5 1 1 2 3 3 3 2 4 5 4 4 5 4 5 4 5 5
5 7 7 6 4 6 8 8 9 10 10 10 9 8 7 6 5 2 0 3 3 1 1 1 1 2 3 3 2 2 3 4 5 7 5 5 5 5 6 6 6 7 6 7
Wind_Direction
239 266 249 220 213 215 229 236 250 249 236 242 271 297 309 307 293 281 229 197 180 185 177 176 175 173 175 173 172 171 176 176 177 179 178 179 180 184 197 193 200 206 197 199
236 244 251 246 250 229 222 233 246 262 271 285 114 282 282 311 308 295 296 212 198 180 186 186 184 182 177 174 173 173 177 176 168 172 172 181 182 192 198 198 205 203 201 197
244 231 235 235 232 233 212 210 226 231 240 124 209 346 9 355 349 344 322 290 217 201 195 191 189 183 180 177 172 177 177 175 175 172 178 187 189 194 197 201 193 202 200 195
251 238 228 245 223 226 223 221 213 237 217 217 261 115 56 28 11 6 354 309 264 219 202 195 191 187 182 175 176 178 179 181 183 177 178 184 186 189 193 201 199 201 198 196
233 234 237 183 195 208 222 227 213 223 206 211 201 170 142 44 27 24 12 348 276 224 209 195 195 189 186 182 180 185 183 186 186 191 186 182 191 191 189 191 197 199 197 197
221 244 236 225 178 206 230 232 178 210 199 187 163 219 94 51 27 21 23 20 356 252 231 201 204 196 192 193 192 192 188 186 186 192 198 196 189 190 195 195 198 196 195 196
220 234 238 107 142 176 205 155 158 176 146 151 195 35 70 45 35 26 23 22 21 21 240 228 213 205 200 203 206 198 188 188 186 192 194 202 194 192 192 209 204 207 197 196
220 222 245 150 155 219 85 127 135 135 126 110 105 102 67 49 30 20 15 22 18 39 58 67 206 213 211 215 207 208 198 193 189 199 198 190 197 190 193 196 205 203 200 200
49 70 52 151 27 81 124 125 125 133 120 117 120 104 85 35 26 17 13 19 20 27 59 60 86 171 190 159 168 183 193 198 188 191 188 167 159 347 265 226 228 218 209 208
316 98 114 136 107 114 105 113 126 116 124 121 76 31 357 355 350 352 9 14 14 345 124 94 71 33 75 169 178 163 168 190 194 184 179 159 117 96 351 307 255 235 219 229
260 230 184 175 158 140 132 134 137 119 127 124 295 36 355 348 338 319 301 302 27 17 39 48 12 340 239 230 190 191 189 210 202 208 188 194 172 184 185 237 254 256 229 227
351 28 356 58 148 171 147 128 129 146 151 138 176 102 56 49 39 16 334 274 237 308 333 23 67 67 22 213 212 239 253 251 254 212 196 201 199 140 116 192 299 276 306 232
342 340 108 126 135 141 136 130 140 144 146 152 128 122 102 113 84 66 71 79 73 26 314 303 330 39 26 74 127 267 276 258 226 214 200 204 140 113 202 197 180 237 217 217
267 233 216 199 170 165 166 147 154 133 146 141 129 128 114 112 135 78 68 69 58 62 47 5 284 316 344 350 316 95 269 265 224 216 198 136 114 209 234 264 258 237 196 229
268 239 291 356 164 182 192 163 182 189 167 152 142 131 118 97 86 84 41 53 73 59 43 13 21 23 2 56 61 31 253 161 163 129 144 278 290 267 244 245 259 283 159 159
280 231 229 226 215 202 193 196 213 195 180 152 139 113 106 103 105 108 108 54 63 43 18 20 29 11 26 53 150 143 82 86 85 78 56 31 20 323 326 253 245 249 248 245
257 233 222 240 236 214 210 202 194 164 153 142 121 128 111 99 95 77 57 86 71 56 16 21 0 3 337 297 329 11 104 126 85 127 127 118 233 268 272 295 290 293 303 160
255 270 258 252 224 202 187 171 158 151 134 104 122 126 96 80 58 67 48 58 128 81 48 17 1 3 25 8 0 48 66 66 131 159 161 146 163 221 246 240 252 203 177 145
261 249 243 237 214 191 173 168 153 127 130 151 157 127 114 110 94 91 102 98 95 127 50 25 333 18 57 33 351 114 82 84 67 85 83 128 201 189 207 225 226 202 168 164
279 250 232 218 188 175 167 160 146 144 151 149 139 149 133 120 105 92 66 80 56 47 359 23 17 52 35 54 335 64 26 39 42 27 29 339 6 0 265 234 231 275 239 189
305 235 208 186 180 167 159 156 147 150 148 153 162 140 115 106 117 125 194 151 82 69 23 11 8 60 81 6 281 49 50 75 86 66 12 64 21 9 263 271 247 253 266 261
311 232 191 173 169 159 156 150 140 137 142 149 132 122 131 128 126 101 38 59 101 300 69 74 66 22 13 308 42 46 46 42 41 43 34 25 26 31 30 86 167 217 222 224
285 235 188 170 164 148 148 144 142 141 143 152 150 149 156 144 142 138 126 133 115 75 95 81 61 4 313 67 55 53 61 52 44 37 33 27 24 19 36 55 85 41 22 218
256 212 187 166 150 152 150 153 150 150 145 149 150 146 148 148 139 113 114 102 97 233 62 110 139 255 297 85 67 57 39 50 45 33 47 292 39 20 5 354 327 16 108 204
250 189 176 155 149 127 126 138 141 142 147 143 148 170 164 148 144 144 160 134 142 230 200 158 197 232 256 232 241 271 289 285 347 323 319 331 0 11 351 27 38 17 354 327
202 142 135 128 111 93 82 153 167 162 158 156 170 178 179 162 142 185 180 185 178 179 230 152 191 201 235 207 304 318 327 342 314 282 298 298 302 297 308 330 320 311 304 299
143 121 119 105 122 184 186 184 160 161 174 167 172 178 176 185 155 236 135 208 259 277 359 328 149 108 347 1 328 342 338 343 41 349 339 333 327 318 316 329 313 298 291 286